Location: Johnson City
(36.3130°N, 82.3540°W)
Time: 13:08:39
(UTC-04:00)

Envisat - Pass Details

Date: 23 February 2019
Orbit: 764 x 766 km, 98.2° (Epoch: 24 March)

Event Time Altitude Azimuth Distance (km) Brightness Sun altitude
Rises 18:38:03 0° 148° (SSE) 3,218 6.0 -4.8°
Reaches altitude 10° 18:40:27 10° 141° (SE) 2,295 5.2 -5.2°
Maximum altitude 18:45:11 42° 72° (ENE) 1,090 3.4 -6.2°
Drops below altitude 10° 18:49:57 10° 3° (N) 2,308 5.4 -7.1°
Sets 18:52:21 0° 356° (N) 3,238 6.2 -7.6°
